Regional Weather Roundup
Issued by NWS Little Rock, AR

Home | Current Version | Previous Version | Text Only | Print | Product List | Glossary On
Versions: 1 2 3 4 5 6 7 8 9 10 11 12 13 14 15 16 17 18 19 20 21 22 23 24 25 26 27 28 29 30 31 32 33 34 35 36 37 38 39 40 41 42 43 44 45 46 47 48 49 50
000
ASUS44 KLZK 280505
RWRLZK

WEATHER ROUNDUP FOR ARKANSAS
NATIONAL WEATHER SERVICE LITTLE ROCK AR
1200 AM CDT MON JUL 28 2014

NOTE: "FAIR" INDICATES FEW OR NO CLOUDS BELOW 12,000 FEET WITH NO
SIGNIFICANT WEATHER AND/OR OBSTRUCTIONS TO VISIBILITY.

ARZ001-003-010-029-280600-
NORTHWEST ARKANSAS

CITY           SKY/WX    TMP DP  RH WIND       PRES   REMARKS
FAYETTEVILLE   PTCLDY    69  62  78 CALM      30.12R
FORT SMITH     CLEAR     81  64  56 N5        30.04R
HARRISON       CLEAR     72  63  73 NW7       30.10R
BENTONVILLE    CLEAR     72  61  68 NW3       30.13R
ROGERS         CLEAR     71  62  73 W5        30.13R
SILOAM SPGS    CLEAR     70  59  68 CALM      30.13R
HIGHFILL       CLEAR     73  66  78 NW7       30.12R
$$

ARZ004-005-016-280600-
NORTH CENTRAL ARKANSAS

CITY           SKY/WX    TMP DP  RH WIND       PRES   REMARKS
BATESVILLE     PTCLDY    77  72  83 W3        30.00R
FLIPPIN        CLEAR     72  63  73 W3        30.06R
MTN HOME       CLEAR     72  63  73 NW3       30.05R
$$

ARZ040-041-280600-
WEST CENTRAL ARKANSAS

CITY           SKY/WX    TMP DP  RH WIND       PRES   REMARKS
MENA           PTCLDY    79  73  83 CALM      30.06S
MOUNT IDA      PTCLDY    78  76  93 CALM      30.01R FOG
$$

ARZ009-017-025-026-028-280600-
NORTHEAST ARKANSAS

CITY           SKY/WX    TMP DP  RH WIND       PRES   REMARKS
CORNING        FAIR      75  66  73 NW8       29.97S
JONESBORO      PTCLDY    79  71  76 NW3       29.97R
NEWPORT        PTCLDY    78  73  84 N6        29.99R
WALNUT RIDGE   CLEAR     77  64  65 NW7       29.97R
BLYTHEVILLE    CLEAR     78  71  79 NW7       29.96R
$$

ARZ022-023-033-042-044-280600-
CENTRAL ARKANSAS

CITY           SKY/WX    TMP DP  RH WIND       PRES   REMARKS
LITTLE ROCK    MOCLDY    83  74  74 CALM      29.98R HX  89
N LITTLE ROCK  MOCLDY    82  73  74 NW5       29.98R HX  88
JACKSONVILLE   MOCLDY    78  71  80 CALM      29.99S
SEARCY         MOCLDY    83  71  66 NW7       29.99S HX  87
HOT SPRINGS    MOCLDY    78  75  90 NW5       30.01R
RUSSELLVILLE   MOCLDY    82  73  74 NW5       30.02R HX  87
CLINTON        FAIR      75  73  94 CALM      30.04R
$$

ARZ036-280600-
EAST ARKANSAS

CITY           SKY/WX    TMP DP  RH WIND       PRES   REMARKS
WEST MEMPHIS   CLEAR     82  79  90 CALM      29.95R HX  92
$$

ARZ050-053-066-070-073-280600-
SOUTHWEST ARKANSAS

CITY           SKY/WX    TMP DP  RH WIND       PRES   REMARKS
ARKADELPHIA    FAIR      82  78  88 CALM      29.99S HX  91
CAMDEN         CLOUDY    82  75  78 W3        29.99R HX  89
TEXARKANA      CLOUDY    84  74  71 NW6       30.02R HX  91
EL DORADO      MOCLDY    80  75  84 SW5       30.01S HX  85
DE QUEEN       CLOUDY    76  75  97 CALM      30.01S
$$

ARZ056-057-069-280600-
SOUTHEAST ARKANSAS

CITY           SKY/WX    TMP DP  RH WIND       PRES   REMARKS
PINE BLUFF     MOCLDY    83  76  79 W3        29.97F HX  91
STUTTGART      MOCLDY    82  77  83 W5        29.98R HX  91
MONTICELLO     CLOUDY    84  75  74 SW7       29.98F HX  92

$$





USA.gov is the U.S. government's official web portal to all federal, state and local government web resources and services.